Flag for France Weather past 2 weeks in Rodez, France

Now
50 °F

Partly sunny.


Feels Like: 50 °F
Forecast: 48 / 54 °F
Wind: 2 mph from North

Location: Rodez Airport

Current Time: Apr 18, 2015 at 11:04:31 AM

Latest Report: Apr 18, 2015 at 10:30 AM


Visibility: N/A

Pressure: 30.01 "Hg

Humidity: 94%

Dew point: 48 °F

Location of RodezLocation

Historic Weather in Rodez — Graph

°F

Rodez temperature yesterday

Maximum temperature yesterday: 57 °F (at 3:00 PM)
Minimum temperature yesterday: 48 °F (at 9:00 PM)
Average temperature yesterday: 52 °F

Past Weeks' High & Low Weather Summary

 TemperatureHumidityPressure
High79 °F (Apr 14, 4:30 PM)100% (Apr 4, 5:00 AM)30.45 "Hg (Apr 4, 5:00 AM)
Low25 °F (Apr 6, 6:30 AM)15% (Apr 14, 3:00 PM)29.92 "Hg (Apr 5, 5:30 AM)
Average53 °F56%30.19 "Hg
* Reported Apr 3 10:00 AM — Apr 18 10:00 AM, Rodez, Weather by CustomWeather, © 2015

Note: Actual official high and low records may vary slightly from our data, if they occured in-between our weather recording intervals... More about our weather records

Advertising

Rodez weather history for previous 24 hours

 ConditionsComfort  
Time TempWeatherWind HumidityBarometerVisibility
10:00 AM
Sat, Apr 18
48 °FLow clouds.3 mph94%30.01 "HgN/A
9:30 AM46 °FFog.3 mph100%30.01 "Hg1 mi
9:00 AM46 °FFog.3 mph93%30.01 "Hg0 mi
8:30 AM45 °FFog.3 mph100%30.01 "Hg1 mi
8:00 AM46 °FFog.5 mph100%30.01 "Hg0 mi
7:30 AM46 °FFog.5 mph100%30.01 "Hg1 mi
7:00 AM46 °FFog.6 mph100%30.01 "Hg0 mi
6:30 AM46 °FFog.6 mph100%30.01 "Hg0 mi
6:00 AM46 °FFog.5 mph100%30.01 "Hg1 mi
5:30 AM46 °FFog.3 mph100%30.01 "Hg0 mi
5:00 AM46 °FFog.No wind100%30.04 "Hg0 mi
4:30 AM46 °FFog.1 mph100%30.04 "Hg0 mi
4:00 AM48 °FFog.3 mph100%30.04 "Hg0 mi
3:30 AM46 °FFog.2 mph93%30.07 "Hg0 mi
3:00 AM45 °FFog.2 mph100%30.07 "Hg0 mi
2:30 AM43 °FFog.3 mph93%30.07 "Hg0 mi
2:00 AM45 °FFog.2 mph100%30.07 "Hg0 mi
1:30 AM46 °FFog.1 mph100%30.07 "Hg0 mi
1:00 AM48 °FFog.No wind94%30.09 "Hg0 mi
12:30 AM50 °FFog.No wind94%30.09 "Hg3 mi
12:00 AM48 °FFog.No wind100%30.09 "Hg0 mi
11:30 PM
Fri, Apr 17
48 °FPassing clouds.No wind100%30.09 "Hg4 mi
11:00 PM48 °FOvercast.3 mph100%30.09 "Hg4 mi
10:30 PM48 °FFog.2 mph100%30.09 "Hg3 mi
10:00 PM48 °FLight fog.1 mph100%30.07 "Hg1 mi
9:30 PM48 °FPartly sunny.3 mph100%30.07 "HgN/A
9:00 PM48 °FPartly sunny.3 mph100%30.07 "HgN/A
8:30 PM50 °FPassing clouds.5 mph94%30.07 "HgN/A
8:00 PM52 °FScattered clouds.7 mph94%30.07 "HgN/A
7:30 PM52 °FMore clouds than sun.7 mph94%30.07 "HgN/A
7:00 PM52 °FPartly sunny.8 mph94%30.07 "HgN/A
6:30 PM52 °FLight rain. Cloudy.9 mph100%30.07 "HgN/A
6:00 PM52 °FLight rain. Mostly cloudy.7 mph94%30.07 "HgN/A
5:30 PM52 °FRain. Broken clouds.9 mph94%30.07 "Hg4 mi
5:00 PM52 °FHeavy rain. Fog.21 mph94%30.07 "Hg1 mi
4:30 PM57 °FBroken clouds.9 mph72%30.07 "HgN/A
4:00 PM57 °FMostly cloudy.7 mph77%30.07 "HgN/A
3:30 PM57 °FPartly sunny.7 mph72%30.07 "HgN/A
3:00 PM57 °FPartly sunny.7 mph77%30.07 "HgN/A
2:30 PM55 °FBroken clouds.7 mph82%30.07 "HgN/A
2:00 PM55 °FPartly sunny.7 mph77%30.07 "HgN/A
1:30 PM55 °FMore clouds than sun.8 mph82%30.07 "HgN/A
1:00 PM54 °FPartly sunny.8 mph88%30.07 "HgN/A
12:30 PM54 °FMostly cloudy.8 mph82%30.07 "HgN/A
12:00 PM52 °FMostly cloudy.5 mph88%30.07 "HgN/A
11:30 AM52 °FPartly sunny.9 mph88%30.07 "HgN/A
11:00 AM52 °FBroken clouds.7 mph94%30.07 "HgN/A
Weather by CustomWeather, © 2015

See weather overviewHow to use our weather pages